Regional Weather Roundup
Issued by NWS

Home | Current Version | Previous Version | Graphics & Text | Print | Product List | Glossary On
Versions: 1 2 3 4 5 6 7 8 9 10 11 12 13 14 15 16 17 18 19 20 21 22 23 24 25 26 27 28 29 30 31 32 33 34 35 36 37 38 39 40 41 42 43 44 45 46 47 48 49 50
000
ASUS45 KSLC 200010
RWRUT

UTAH REGIONAL WEATHER ROUNDUP
NATIONAL WEATHER SERVICE SALT LAKE CITY UT
500 PM MST SUN FEB 19 2017

UTZ001>011-023>025-200100-

NORTHERN UTAH

CITY           SKY/WX    TMP DP  RH WIND       PRES   REMARKS
BRIGHAM CITY     N/A     51  38  62 SW3       29.76R
HILL AFB       MOSUNNY   51  30  44 SW6       29.75R
LOGAN          MOSUNNY   49  37  63 CALM      29.75R
OGDEN          MOSUNNY   51  34  52 SW6       29.75R
SALT LAKE CITY PTSUNNY   53  38  56 CALM      29.76R
TOOELE VALLEY  MOSUNNY   52  37  58 E5        29.75S
WENDOVER       SUNNY     55  27  33 W13       29.73R
HEBER CITY     MOSUNNY   43  36  75 CALM      29.78R
WEST JORDAN    MOSUNNY   53  47  81 S6        29.78R

$$

UTZ011>015-024>027-200100-

CENTRAL/NORTHEAST UTAH

CITY           SKY/WX    TMP DP  RH WIND       PRES   REMARKS
PROVO AIRPORT  MOSUNNY   49  38  65 E5        29.78R
MOAB/CANYONLAN CLOUDY    46  42  86 E3        29.78R
DELTA          PTSUNNY   54  32  43 S6        29.76R
PRICE          CLOUDY    38  37  97 E8        29.80R WCI  32
RICHFIELD      MOSUNNY   52  34  50 S16       29.81R
ROOSEVELT      CLOUDY    43  39  87 SE8       29.77R
VERNAL         CLOUDY    38  37  97 E5        29.77R FOG     WCI  34

$$

UTZ013>016-019>022-027-200100-

SOUTHERN UTAH

CITY           SKY/WX    TMP DP  RH WIND       PRES   REMARKS
BRYCE CANYON   CLOUDY    38  28  67 W10       29.86R WCI  31
CEDAR CITY     CLOUDY    46  35  65 SW18G25   29.86R
MILFORD        SUNNY     49  37  63 SW28G38   29.81R
ST GEORGE      CLOUDY    55  42  61 W9        29.88S
HANKSVILLE     CLOUDY    46  41  81 SE8       29.81R
KANAB          SUNNY     50  37  62 SW12G17   29.94R
BLANDING       CLOUDY    43  34  71 SW7G18    29.91R

$$

REGIONAL REPORTS     COLORADO/ARIZONA

CITY           SKY/WX    TMP DP  RH WIND       PRES   REMARKS
CRAIG, CO      LGT RAIN  38  34  85 SW5       29.76R FOG     WCI  34
GRAND JUNCTION CLOUDY    45  39  79 N8        29.79S
RIFLE, CO      CLOUDY    42  35  76 W23G35    29.78R
MONTROSE, CO   CLOUDY    45  29  53 NE5       29.82R
CORTEZ, CO     CLOUDY    39  35  86 S9        29.86R WCI  33
COLORADO CITY  LGT RAIN  46  39  76 W6        29.94R
PAGE, AZ       PTSUNNY   52  35  52 N3        29.85R
GRAND CANYON   PTSUNNY   40  39  97 SW12      29.94R WCI  33
KINGMAN, AZ    CLOUDY    52  35  52 SW14      29.94R
FLAGSTAFF, AZ  MIX PCPN  35  33  92 W7        29.95R FOG     WCI  29

$$

REGIONAL REPORTS    NEVADA/IDAHO/WYOMING

CITY           SKY/WX    TMP DP  RH WIND       PRES   REMARKS
LAS VEGAS, NV  PTSUNNY   61  37  41 SW10      29.85R
ELY, NY        SUNNY     48  27  44 SW6       29.80S
ELKO, NV       SUNNY     52  22  30 W21G28    29.74R
POCATELLO, ID  CLOUDY    41  33  73 SW14      29.75R
BURLEY, ID     PTSUNNY   48  31  51 SW7       29.72R
FORT BRIDGER,  CLOUDY    38  35  87 W12       29.80R WCI  31
EVANSTON, WY   CLOUDY    33  27  78 W10       29.79R WCI  25
ROCK SPRINGS,  CLOUDY    35  32  88 SW14      29.75R WCI  26
KEMMERER, WY   SNOW      32  28  86 W24G36    29.79R VSB 1/4 WCI  19

$$



USA.gov is the U.S. government's official web portal to all federal, state and local government web resources and services.